This demonstration page uses our WeatherBlox Daily Observations layout. Learn more.

Left ArrowRight Arrow

39.08367, -84.50855

Hourly Observations for April 11, 2022

Temp ( °F °C ) Dew Point ( °F °C ) Humidity (%) Winds ( mph kmh ) Pressure ( in mb ) Visibility ( mi km ) Precip ( " mm )
12:53 am 00:53 Clear 46 7.8 34 1.1 63 63 Calm 29.90 1012 10 16 0.00 0.00
1:53 am 01:53 Clear 48 8.9 34 1.1 58 58 WSW 5 7 29.89 1012 10 16 0.00 0.00
2:53 am 02:53 Partly Cloudy 52 11.1 37 2.8 57 57 SSW 8 13 29.86 1011 10 16 0.00 0.00
3:53 am 03:53 Clear 53 11.7 38 3.3 57 57 SSW 8 13 29.85 1011 10 16 0.00 0.00
4:53 am 04:53 Clear 53 11.7 39 3.9 59 59 SSW 8 13 29.84 1011 10 16 0.00 0.00
5:53 am 05:53 Mostly Cloudy 55 12.8 41 5 59 59 SW 6 9 29.85 1011 10 16 0.00 0.00
6:53 am 06:53 Partly Cloudy 55 12.8 42 5.6 62 62 WSW 7 11 29.85 1011 10 16 0.00 0.00
7:53 am 07:53 Cloudy 59 15 44 6.7 58 58 SSW 8 13 29.88 1012 10 16 0.00 0.00
8:53 am 08:53 Partly Cloudy 61 16.1 49 9.4 65 65 S 14 22 29.88 1012 10 16 0.00 0.00
9:53 am 09:53 Mostly Cloudy 60 15.6 49 9.4 67 67 SSW 14 22 29.90 1012 10 16 0.00 0.00
10:48 am 10:48 Cloudy with Nearby Thunderstorms 59 15 52 11 77 77 S 10 17 29.91 1013 10 16 0.00 0.00
10:53 am 10:53 Cloudy with Nearby Thunderstorms 58 14.4 52 11.1 81 81 S 7 11 29.90 1013 9 14 0.00 0.00
11:11 am 11:11 Cloudy with Light Rain 58 14.4 54 12.2 87 87 SW 9 15 29.94 1014 7 11 0.01 0.25
11:53 am 11:53 Mostly Sunny 62 16.7 54 12.2 75 75 SW 13 20 29.95 1014 7 11 0.01 0.25
12:53 pm 12:53 Cloudy with Light Rain 61 16.1 53 11.7 75 75 WSW 14 22 29.96 1015 8 13 0.00 0.00
1:53 pm 13:53 Cloudy with Light Rain 58 14.4 55 12.8 90 90 S 8 13 29.96 1015 4 6 0.06 1.52
2:53 pm 14:53 Cloudy 61 16.1 57 13.9 87 87 S 14 22 29.95 1014 10 16 0.00 0.00
3:53 pm 15:53 Cloudy 62 16.7 56 13.3 80 80 SSW 16 26 29.93 1014 10 16 0.00 0.00
4:00 pm 16:00 Cloudy 62 16.7 55 12.8 78 78 SSW 17 28 29.93 1014 10 16 0.00 0.00
4:53 pm 16:53 Cloudy 62 16.7 56 13.3 80 80 S 16 26 29.91 1013 10 16 0.00 0.00
5:53 pm 17:53 Cloudy 61 16.1 55 12.8 81 81 SSW 16 26 29.92 1013 10 16 0.00 0.00
6:53 pm 18:53 Cloudy with Light Rain 59 15 56 13.3 90 90 SSW 18 30 29.93 1014 9 14 0.00 0.00
7:53 pm 19:53 Cloudy 58 14.4 55 12.8 90 90 S 10 17 29.92 1013 10 16 0.00 0.00
8:53 pm 20:53 Cloudy 57 13.9 55 12.8 93 93 SSW 7 11 29.94 1014 10 16 0.00 0.00
9:32 pm 21:32 Cloudy with Light Rain 57 13.9 55 12.8 93 93 SSW 8 13 29.96 1015 10 16 0.00 0.00
9:53 pm 21:53 Cloudy with Light Rain 57 13.9 56 13.3 96 96 SSW 9 15 29.97 1015 7 11 0.00 0.00
10:43 pm 22:43 Cloudy with Light Rain 57 13.9 56 13.3 96 96 SSW 10 17 29.99 1016 7 11 0.02 0.51
10:53 pm 22:53 Cloudy with Light Rain 57 13.9 56 13.3 96 96 SSW 10 17 29.98 1015 7 11 0.03 0.76
11:04 pm 23:04 Cloudy with Light Rain 57 13.9 56 13.3 96 96 SSW 9 15 29.98 1015 5 8 0.01 0.25
11:53 pm 23:53 Cloudy with Light Rain 58 14.4 57 13.9 97 97 S 14 22 29.93 1014 10 16 0.03 0.76

Powered by AerisWeather